GLO1367 SBRP-SBSP

Flight info

Callsign GLO1367
Flight time 0h 34m
Altitude 29000
Route DCT LOKAR DCT UTLOT
Aircraft B737/M-SDFGHIKRWXY/LB1

Departure

Time 2026-04-20 00:32
Airport Leite Lopes Airport (SBRP)

Arrival

Time 2026-04-20 01:06
Airport Congonhas–Deputado Freitas Nobre Airport (SBSP)
Time Latitude Longitude Altitude Speed Heading
2026-04-20 00:08 -21.13917 -47.77585 1804 ft 0 kts 254°
2026-04-20 00:23 -21.13911 -47.77567 1803 ft 4 kts 242°
2026-04-20 00:23 -21.13895 -47.77551 1800 ft 4 kts 174°
2026-04-20 00:23 -21.13871 -47.77557 1801 ft 4 kts 161°
2026-04-20 00:24 -21.13847 -47.77566 1802 ft 3 kts 163°
2026-04-20 00:24 -21.13844 -47.77567 1800 ft 1 kts 163°
2026-04-20 00:26 -21.13845 -47.77567 1800 ft 1 kts 163°
2026-04-20 00:27 -21.13858 -47.77562 1802 ft 3 kts 162°
2026-04-20 00:27 -21.13870 -47.77542 1801 ft 4 kts 91°
2026-04-20 00:27 -21.13861 -47.77505 1801 ft 6 kts 75°
2026-04-20 00:27 -21.13846 -47.77459 1802 ft 7 kts 51°
2026-04-20 00:28 -21.13801 -47.77461 1802 ft 7 kts 342°
2026-04-20 00:28 -21.13743 -47.77479 1803 ft 10 kts 343°
2026-04-20 00:28 -21.13675 -47.77500 1802 ft 11 kts 343°
2026-04-20 00:28 -21.13576 -47.77531 1802 ft 17 kts 343°
2026-04-20 00:29 -21.13466 -47.77566 1800 ft 16 kts 343°
2026-04-20 00:29 -21.13358 -47.77600 1800 ft 16 kts 343°
2026-04-20 00:29 -21.13255 -47.77634 1800 ft 15 kts 343°
2026-04-20 00:29 -21.13149 -47.77668 1801 ft 18 kts 343°
2026-04-20 00:30 -21.13019 -47.77709 1803 ft 20 kts 343°
2026-04-20 00:30 -21.12889 -47.77751 1802 ft 19 kts 342°
2026-04-20 00:30 -21.12763 -47.77792 1803 ft 19 kts 343°
2026-04-20 00:30 -21.12640 -47.77819 1802 ft 18 kts 14°
2026-04-20 00:31 -21.12545 -47.77739 1801 ft 17 kts 34°
2026-04-20 00:31 -21.12538 -47.77689 1804 ft 9 kts 164°
2026-04-20 00:31 -21.12759 -47.77618 1804 ft 75 kts 163°
2026-04-20 00:31 -21.13536 -47.77370 1817 ft 154 kts 163°
2026-04-20 00:32 -21.14572 -47.77066 2704 ft 153 kts 164°
2026-04-20 00:32 -21.15722 -47.76724 3210 ft 187 kts 162°
2026-04-20 00:32 -21.17038 -47.76307 3839 ft 207 kts 162°
2026-04-20 00:32 -21.18486 -47.75870 4496 ft 224 kts 172°
2026-04-20 00:33 -21.20094 -47.75930 5102 ft 250 kts 186°
2026-04-20 00:33 -21.21901 -47.76189 5766 ft 271 kts 187°
2026-04-20 00:33 -21.23776 -47.76423 6882 ft 273 kts 186°
2026-04-20 00:33 -21.25681 -47.76618 7988 ft 277 kts 185°
2026-04-20 00:34 -21.27614 -47.76808 9069 ft 281 kts 185°
2026-04-20 00:34 -21.29588 -47.77002 9970 ft 294 kts 186°
2026-04-20 00:34 -21.31721 -47.77214 10406 ft 318 kts 186°
2026-04-20 00:34 -21.33956 -47.77439 11232 ft 326 kts 186°
2026-04-20 00:35 -21.36191 -47.77666 12206 ft 328 kts 185°
2026-04-20 00:35 -21.38476 -47.77899 13168 ft 332 kts 185°
2026-04-20 00:35 -21.40787 -47.78135 14046 ft 336 kts 185°
2026-04-20 00:35 -21.43129 -47.78376 14851 ft 340 kts 185°
2026-04-20 00:36 -21.45496 -47.78620 15677 ft 344 kts 185°
2026-04-20 00:36 -21.47891 -47.78867 16500 ft 347 kts 185°
2026-04-20 00:36 -21.50311 -47.79117 17311 ft 351 kts 185°
2026-04-20 00:36 -21.52757 -47.79370 18112 ft 355 kts 185°
2026-04-20 00:37 -21.55234 -47.79626 18821 ft 359 kts 185°
2026-04-20 00:37 -21.57732 -47.79885 19531 ft 363 kts 186°
2026-04-20 00:37 -21.60225 -47.80144 20215 ft 366 kts 186°
2026-04-20 00:37 -21.62771 -47.80408 20926 ft 370 kts 186°
2026-04-20 00:38 -21.65343 -47.80674 21627 ft 373 kts 186°
2026-04-20 00:38 -21.67937 -47.80944 22315 ft 377 kts 187°
2026-04-20 00:38 -21.70563 -47.81217 22992 ft 381 kts 187°
2026-04-20 00:38 -21.73210 -47.81492 23642 ft 384 kts 187°
2026-04-20 00:39 -21.75884 -47.81769 24207 ft 387 kts 187°
2026-04-20 00:39 -21.78568 -47.82048 24764 ft 388 kts 187°
2026-04-20 00:39 -21.81225 -47.82324 24971 ft 389 kts 187°
2026-04-20 00:39 -21.83960 -47.82609 25017 ft 402 kts 188°
2026-04-20 00:40 -21.86781 -47.82905 25020 ft 412 kts 187°
2026-04-20 00:40 -21.89655 -47.83204 25026 ft 415 kts 187°
2026-04-20 00:40 -21.92518 -47.83501 25016 ft 412 kts 187°
2026-04-20 00:40 -21.95356 -47.83795 25012 ft 410 kts 187°
2026-04-20 00:41 -21.98191 -47.84089 25020 ft 408 kts 187°
2026-04-20 00:41 -22.01019 -47.84383 25023 ft 408 kts 187°
2026-04-20 00:41 -22.03841 -47.84677 25024 ft 408 kts 187°
2026-04-20 00:41 -22.06628 -47.84968 25028 ft 408 kts 187°
2026-04-20 00:42 -22.09455 -47.85263 25023 ft 409 kts 187°
2026-04-20 00:42 -22.12287 -47.85559 25018 ft 409 kts 187°
2026-04-20 00:42 -22.15120 -47.85854 25027 ft 410 kts 187°
2026-04-20 00:42 -22.17960 -47.86151 25023 ft 410 kts 187°
2026-04-20 00:43 -22.20804 -47.86448 25028 ft 411 kts 187°
2026-04-20 00:43 -22.22688 -47.86645 25026 ft 411 kts 187°
2026-04-20 00:43 -22.26502 -47.87044 25022 ft 412 kts 187°
2026-04-20 00:43 -22.29316 -47.87338 25025 ft 412 kts 187°
2026-04-20 00:44 -22.32164 -47.87636 25024 ft 412 kts 187°
2026-04-20 00:44 -22.35015 -47.87935 25019 ft 412 kts 187°
2026-04-20 00:44 -22.37865 -47.88234 25029 ft 411 kts 187°
2026-04-20 00:44 -22.40711 -47.88532 25028 ft 411 kts 187°
2026-04-20 00:45 -22.43569 -47.88736 25014 ft 414 kts 179°
2026-04-20 00:45 -22.46398 -47.88115 25020 ft 419 kts 162°
2026-04-20 00:45 -22.48996 -47.86667 25027 ft 425 kts 148°
2026-04-20 00:45 -22.51137 -47.84502 25031 ft 430 kts 134°
2026-04-20 00:46 -22.53052 -47.82004 25025 ft 432 kts 132°
2026-04-20 00:46 -22.54915 -47.79457 25020 ft 432 kts 131°
2026-04-20 00:46 -22.56773 -47.76894 25012 ft 433 kts 131°
2026-04-20 00:46 -22.58639 -47.74341 25015 ft 432 kts 131°
2026-04-20 00:47 -22.60516 -47.71800 25012 ft 432 kts 132°
2026-04-20 00:47 -22.62404 -47.69266 25013 ft 432 kts 132°
2026-04-20 00:47 -22.64292 -47.66744 25020 ft 432 kts 132°
2026-04-20 00:47 -22.66184 -47.64220 25026 ft 430 kts 132°
2026-04-20 00:48 -22.68035 -47.61748 25011 ft 418 kts 132°
2026-04-20 00:48 -22.69423 -47.59894 25020 ft 416 kts 132°
2026-04-20 00:48 -22.70815 -47.58035 25029 ft 418 kts 132°
2026-04-20 00:48 -22.72640 -47.55597 25020 ft 414 kts 132°
2026-04-20 00:49 -22.74450 -47.53178 24679 ft 414 kts 132°
2026-04-20 00:49 -22.76254 -47.50764 24177 ft 412 kts 132°
2026-04-20 00:49 -22.78045 -47.48366 23686 ft 406 kts 132°
2026-04-20 00:49 -22.79808 -47.46003 23115 ft 400 kts 132°
2026-04-20 00:50 -22.81542 -47.43678 22599 ft 394 kts 132°
2026-04-20 00:50 -22.83255 -47.41381 22103 ft 389 kts 132°
2026-04-20 00:50 -22.84376 -47.39878 21784 ft 387 kts 131°
2026-04-20 00:50 -22.86608 -47.36884 21152 ft 383 kts 131°
2026-04-20 00:51 -22.88277 -47.34643 20680 ft 380 kts 131°
2026-04-20 00:51 -22.89814 -47.32580 20249 ft 378 kts 131°
2026-04-20 00:51 -22.91459 -47.30369 19781 ft 375 kts 131°
2026-04-20 00:51 -22.93095 -47.28170 19305 ft 374 kts 131°
2026-04-20 00:52 -22.94174 -47.26719 18991 ft 372 kts 131°
2026-04-20 00:52 -22.95792 -47.24542 18524 ft 370 kts 131°
2026-04-20 00:52 -22.97919 -47.21678 17849 ft 365 kts 131°
2026-04-20 00:52 -22.99502 -47.19547 17375 ft 361 kts 131°
2026-04-20 00:53 -23.01080 -47.17448 16912 ft 355 kts 135°
2026-04-20 00:53 -23.02288 -47.16288 16600 ft 350 kts 147°
2026-04-20 00:53 -23.05174 -47.14896 16048 ft 341 kts 167°
2026-04-20 00:53 -23.06700 -47.14526 15777 ft 339 kts 169°
2026-04-20 00:54 -23.09006 -47.14041 15348 ft 337 kts 170°
2026-04-20 00:54 -23.11313 -47.13575 14930 ft 338 kts 170°
2026-04-20 00:54 -23.13629 -47.13097 14477 ft 340 kts 169°
2026-04-20 00:54 -23.15954 -47.12603 14054 ft 340 kts 169°
2026-04-20 00:55 -23.19019 -47.11937 13439 ft 338 kts 169°
2026-04-20 00:55 -23.20574 -47.11595 13138 ft 336 kts 169°
2026-04-20 00:55 -23.22828 -47.11098 12706 ft 334 kts 169°
2026-04-20 00:55 -23.25095 -47.10597 12287 ft 331 kts 169°
2026-04-20 00:56 -23.27339 -47.10104 11866 ft 328 kts 169°
2026-04-20 00:56 -23.29572 -47.09615 11449 ft 326 kts 169°
2026-04-20 00:56 -23.31781 -47.09132 11034 ft 321 kts 169°
2026-04-20 00:56 -23.33948 -47.08657 10637 ft 315 kts 169°
2026-04-20 00:57 -23.36074 -47.08191 10248 ft 309 kts 169°
2026-04-20 00:57 -23.38162 -47.07733 10005 ft 299 kts 169°
2026-04-20 00:57 -23.40724 -47.07020 9965 ft 279 kts 155°
2026-04-20 00:57 -23.41804 -47.06242 9798 ft 276 kts 140°
2026-04-20 00:58 -23.42990 -47.04643 9452 ft 277 kts 120°
2026-04-20 00:58 -23.43665 -47.02673 9062 ft 279 kts 109°
2026-04-20 00:58 -23.44194 -47.00647 8718 ft 278 kts 108°
2026-04-20 00:58 -23.44700 -46.98625 8372 ft 275 kts 108°
2026-04-20 00:59 -23.45204 -46.96617 8017 ft 274 kts 108°
2026-04-20 00:59 -23.45711 -46.94620 7673 ft 273 kts 108°
2026-04-20 00:59 -23.46219 -46.92634 7351 ft 270 kts 108°
2026-04-20 00:59 -23.46722 -46.90679 7097 ft 268 kts 108°
2026-04-20 01:00 -23.47226 -46.88732 6855 ft 269 kts 109°
2026-04-20 01:00 -23.47730 -46.86786 6478 ft 271 kts 109°
2026-04-20 01:00 -23.48238 -46.84823 6187 ft 267 kts 109°
2026-04-20 01:00 -23.48738 -46.82894 5923 ft 262 kts 109°
2026-04-20 01:01 -23.49226 -46.81006 5692 ft 254 kts 109°
2026-04-20 01:01 -23.49681 -46.79236 5581 ft 232 kts 109°
2026-04-20 01:01 -23.50101 -46.77607 5458 ft 216 kts 109°
2026-04-20 01:01 -23.50493 -46.76092 5372 ft 201 kts 109°
2026-04-20 01:02 -23.50856 -46.74681 5270 ft 186 kts 110°
2026-04-20 01:02 -23.51428 -46.73522 5127 ft 165 kts 141°
2026-04-20 01:02 -23.52327 -46.72800 4730 ft 162 kts 149°
2026-04-20 01:02 -23.53248 -46.72158 4451 ft 153 kts 149°
2026-04-20 01:03 -23.54114 -46.71559 4284 ft 145 kts 149°
2026-04-20 01:03 -23.54927 -46.70998 4202 ft 143 kts 149°
2026-04-20 01:03 -23.55387 -46.70681 4091 ft 142 kts 149°
2026-04-20 01:03 -23.56204 -46.70117 3947 ft 133 kts 148°
2026-04-20 01:04 -23.56966 -46.69585 3823 ft 130 kts 148°
2026-04-20 01:04 -23.57745 -46.69058 3662 ft 133 kts 148°
2026-04-20 01:04 -23.58526 -46.68519 3467 ft 133 kts 146°
2026-04-20 01:04 -23.59293 -46.67972 3284 ft 134 kts 147°
2026-04-20 01:05 -23.60082 -46.67438 3118 ft 132 kts 146°
2026-04-20 01:05 -23.60848 -46.66907 2906 ft 132 kts 147°
2026-04-20 01:05 -23.61623 -46.66369 2739 ft 132 kts 147°
2026-04-20 01:05 -23.62403 -46.65829 2606 ft 130 kts 147°
2026-04-20 01:06 -23.62977 -46.65432 2610 ft 58 kts 147°
2026-04-20 01:06 -23.63107 -46.65370 2609 ft 12 kts 181°
2026-04-20 01:06 -23.63178 -46.65407 2603 ft 12 kts 250°
2026-04-20 01:06 -23.63127 -46.65472 2601 ft 12 kts 329°
2026-04-20 01:07 -23.63054 -46.65516 2601 ft 12 kts 348°
2026-04-20 01:07 -23.62976 -46.65539 2602 ft 12 kts 328°
2026-04-20 01:07 -23.62910 -46.65586 2602 ft 11 kts 327°
2026-04-20 01:07 -23.62844 -46.65631 2602 ft 11 kts 328°
2026-04-20 01:08 -23.62813 -46.65653 2602 ft 0 kts 326°
2026-04-20 01:09 -23.62810 -46.65655 2602 ft 4 kts 327°
2026-04-20 01:09 -23.62762 -46.65689 2601 ft 11 kts 327°
2026-04-20 01:09 -23.62687 -46.65739 2601 ft 14 kts 328°
2026-04-20 01:10 -23.62622 -46.65798 2601 ft 9 kts 270°
2026-04-20 01:10 -23.62658 -46.65865 2600 ft 0 kts 236°
2026-04-20 01:10 -23.62658 -46.65866 2600 ft 0 kts 236°